Weather History for KSAW - October, 2012

Change the Weather History Date:

Saturday, October 27, 2012

  Actual Average (KESC) Record (KESC)
Temperature  
Mean Temperature 30 °F -  
Max Temperature 37 °F 52 °F 63 °F (1963)
Min Temperature 24 °F 38 °F 24 °F (1997)
Degree Days  
Heating Degree Days 34    
Moisture  
Dew Point 21 °F    
Average Humidity 66    
Maximum Humidity 86    
Minimum Humidity 36    
Precipitation  
Precipitation 0.00 in - - ()
Sea Level Pressure  
Sea Level Pressure 30.27 in    
Wind  
Wind Speed 3 mph (West)    
Max Wind Speed 12 mph    
Max Gust Speed 16 mph    
Visibility 10 miles    
Events      
Averages and records for this station are not official NWS values.
T = Trace of Precipitation, MM = Missing Value Source: NWS Daily Summary

Daily Weather History Graph

Daily Weather History Graph

Search for Another Location

Airport or City:

Trip Planner

Search our weather history database for the weather conditions in past years. The results will help you decide how hot, cold, wet, or windy it might be!

Date:

Astronomy

Oct. 27, 2012 Rise Set
Actual Time 8:24 AM EDT 6:41 PM EDT
Civil Twilight 7:53 AM EDT 7:12 PM EDT
Nautical Twilight 7:17 AM EDT 7:48 PM EDT
Astronomical Twilight 6:43 AM EDT 8:22 PM EDT
Moon 5:31 PM EDT (10/27) 6:13 AM EDT (10/27)
Length of Visible Light 11h 19m
Length of Day
10h 17m
Waxing Gibbous, 96% of the Moon is Illuminated
Oct 27
Waxing Gibbous
Oct 29
Full
Nov 6
Last Quarter
Nov 13
New
Nov 20
First Quarter

Hourly Weather History & Observations

Time (EDT) Temp. Windchill Dew Point Humidity Pressure Visibility Wind Dir Wind Speed Gust Speed Precip Events Conditions
12:15 AM 35.1 °F 32.2 °F 22.5 °F 60% 30.26 in 10.0 mi West 3.5 mph - N/A   Overcast
12:36 AM 34.7 °F 31.8 °F 22.5 °F 61% 30.26 in 10.0 mi WNW 3.5 mph - N/A   Overcast
12:56 AM 34.7 °F 31.8 °F 22.1 °F 60% 30.26 in 10.0 mi West 3.5 mph - N/A   Overcast
1:15 AM 34.3 °F 31.4 °F 22.1 °F 61% 30.26 in 10.0 mi WSW 3.5 mph - N/A   Overcast
1:36 AM 34.3 °F 30.2 °F 21.6 °F 60% 30.26 in 10.0 mi West 4.6 mph - N/A   Overcast
1:56 AM 33.6 °F 30.6 °F 21.9 °F 62% 30.25 in 10.0 mi WSW 3.5 mph - N/A   Mostly Cloudy
2:15 AM 33.1 °F 30.0 °F 21.7 °F 63% 30.25 in 10.0 mi WSW 3.5 mph - N/A   Clear
2:36 AM 32.4 °F - 21.9 °F 65% 30.25 in 10.0 mi Calm Calm - N/A   Clear
2:56 AM 32.0 °F - 22.1 °F 67% 30.24 in 10.0 mi Calm Calm - N/A   Clear
3:16 AM 31.3 °F - 22.1 °F 69% 30.25 in 10.0 mi Calm Calm - N/A   Clear
3:36 AM 30.2 °F 26.7 °F 21.4 °F 70% 30.24 in 10.0 mi West 3.5 mph - N/A   Clear
3:55 AM 30.0 °F 25.2 °F 21.4 °F 70% 30.25 in 10.0 mi West 4.6 mph - N/A   Clear
4:16 AM 29.7 °F - 21.9 °F 73% 30.25 in 10.0 mi Calm Calm - N/A   Clear
4:36 AM 30.0 °F 26.5 °F 20.5 °F 68% 30.25 in 10.0 mi SW 3.5 mph - N/A   Clear
4:55 AM 29.3 °F - 21.2 °F 72% 30.25 in 10.0 mi Calm Calm - N/A   Clear
5:16 AM 28.4 °F - 21.2 °F 74% 30.25 in 10.0 mi Calm Calm - N/A   Clear
5:35 AM 28.6 °F - 21.0 °F 73% 30.25 in 10.0 mi Calm Calm - N/A   Clear
5:56 AM 27.1 °F - 21.2 °F 78% 30.25 in 10.0 mi Calm Calm - N/A   Clear
6:50 AM 26.6 °F - 21.2 °F 80% 30.26 in 10.0 mi Calm Calm - N/A   Clear
7:50 AM 24.8 °F - 19.4 °F 80% 30.27 in 10.0 mi Calm Calm - N/A   Clear
8:55 AM 24.8 °F 19.1 °F 21.2 °F 86% 30.29 in 10.0 mi West 4.6 mph - N/A   Clear
9:55 AM 30.2 °F 26.7 °F 23.0 °F 75% 30.30 in 10.0 mi West 3.5 mph - N/A   Clear
10:50 AM 32.0 °F 24.2 °F 23.0 °F 69% 30.29 in 10.0 mi West 9.2 mph - N/A   Overcast
11:55 AM 35.6 °F 29.2 °F 23.0 °F 60% 30.29 in 10.0 mi West 8.1 mph - N/A   Overcast
12:50 PM 37.4 °F 29.8 °F 19.4 °F 48% 30.27 in 10.0 mi NW 11.5 mph 16.1 mph N/A   Overcast
1:55 PM 35.6 °F 28.0 °F 19.4 °F 52% 30.28 in 10.0 mi WNW 10.4 mph - N/A   Overcast
2:55 PM 37.4 °F 32.1 °F 15.8 °F 41% 30.26 in 10.0 mi West 6.9 mph - N/A   Overcast
3:55 PM 37.4 °F 31.4 °F 15.8 °F 41% 30.26 in 10.0 mi NNW 8.1 mph - N/A   Overcast
5:50 PM 37.4 °F 32.1 °F 12.2 °F 36% 30.27 in 10.0 mi WNW 6.9 mph - N/A   Scattered Clouds
6:55 PM 33.8 °F - 14.0 °F 44% 30.28 in 10.0 mi Calm Calm - N/A   Clear
8:50 PM 30.2 °F 24.3 °F 17.6 °F 60% 30.29 in 10.0 mi North 5.8 mph - N/A   Clear
9:50 PM 30.2 °F - 21.2 °F 69% 30.30 in 10.0 mi Calm Calm - N/A   Clear
10:16 PM 29.3 °F - 21.9 °F 74% 30.31 in 10.0 mi Calm Calm - N/A   Clear
10:36 PM 28.4 °F - 21.2 °F 74% 30.31 in 10.0 mi Calm Calm - N/A   Clear
10:56 PM 28.4 °F - 21.9 °F 77% 30.31 in 10.0 mi Calm Calm - N/A   Clear
11:15 PM 28.2 °F - 21.9 °F 77% 30.31 in 10.0 mi Calm Calm - N/A   Clear
11:36 PM 27.7 °F - 21.6 °F 78% 30.32 in 10.0 mi Calm Calm - N/A   Clear
11:56 PM 27.1 °F - 21.7 °F 80% 30.32 in 10.0 mi Calm Calm - N/A   Clear